Torna al catalogo

STARLINK-1067

AttivoComunicazioniVLEO
NORAD 44771·PAYLOAD·🇺🇸 United States

Lanciato Nov 11, 2019 da Cape Canaveral Space Force Station

Loading…

Prossimi Passaggi (prossime 24 ore)

TLE

AggiornatoSource: CelesTrak SupGP

Epoca: Sep 14, 2026, 20:31 UTC

1 44771C 19074BL  26257.85534722  .01232500  00000+0  62743-3 0  2576
2 44771  53.0268 336.4697 0010509 349.7885  37.9115 16.19665179    14

Traccia STARLINK-1067 in tempo reale con AllMySat

Download on the App Store